User: anonymous   Login
Location: Radomski Observatory
(40.2854°N, 79.5145°W)
Time: 02:27:35
(UTC-05:00)
Language:

Cosmos 1072 Rocket - Orbit

View from above orbital plane
View from above orbital plane
View from above satellite
View from above satellite

Ground track
Ground track

The orbit data is extracted from the following two-line orbital elements,

1 11239U 79003B   15064.35453726  .00000075  00000-0  61103-4 0  9993
2 11239 082.9423 348.2065 0040103 203.1594 305.4849 13.75758455813067
Epoch (UTC): 05 March 2015 08:30:32
Eccentricity: 0.0040103
inclination: 82.9423°
perigee height: 949 km
apogee height: 1008 km
right ascension of ascending node: 348.2065°
argument of perigee: 203.1594°
revolutions per day: 13.75758455
mean anomaly at epoch: 305.4849°
orbit number at epoch: 81306

The dashed part of the orbit path shows where the satellite is in the earth's shadow,  

DLR